Temp
3 4 4 5 5 5 5 6 6 6 6 6 6 7 7 6 6 6 5 5 4 4 4 4 3 3 2 2 1 0 0 -0 -1 -0 1 -0 -1 -2 -2 -1 -0 -2 -3 -2
3 3 3 4 4 4 4 5 5 5 6 5 6 6 6 6 6 5 5 4 4 3 3 3 2 2 1 1 -0 -1 -1 -2 -1 1 -0 -1 -1 -1 -2 -3 -4 -4 -2 -0
2 3 2 3 3 3 4 4 4 5 5 5 5 6 6 5 5 5 4 4 3 3 2 2 2 1 0 -0 -1 -1 -2 -2 -1 -1 -1 -2 -3 -3 -4 -4 -5 -4 -3 -2
2 2 2 2 2 3 3 3 4 4 5 5 5 5 5 5 4 4 4 3 3 2 1 1 1 0 -0 -0 -1 -1 -1 -2 -2 -2 -2 -2 -3 -3 -3 -4 -4 -5 -2 -4
1 2 2 2 2 2 2 3 4 4 4 4 5 4 4 4 4 4 3 3 2 1 1 0 -1 -0 -0 -1 -1 -1 -2 -2 -3 -3 -3 -3 -4 -2 -3 -4 -3 -5 -3 -4
0 1 1 2 1 1 2 2 3 3 4 4 3 4 4 4 3 3 2 2 1 1 0 -0 -0 -0 -0 -1 -1 -2 -2 -3 -3 -3 -3 -4 -4 0 1 0 -1 -2 -3 -4
-1 -0 0 1 1 1 1 2 2 2 3 3 3 3 3 3 3 2 2 1 1 1 0 -0 -1 -0 -1 -1 -1 -1 -2 -3 -4 -4 -4 -4 -1 -1 -2 -2 -3 -3 -3 -4
-1 -1 -0 0 1 1 1 1 1 2 2 3 3 2 2 2 2 1 1 1 0 -0 -0 -1 -1 -1 -1 -0 -1 -1 -1 -3 -4 -4 -4 -3 -1 -1 -2 -3 -4 -4 -4 -5
-1 -1 -1 -0 0 0 1 1 1 1 2 2 2 2 1 1 1 1 1 0 0 -1 -1 -1 -1 -1 -1 -1 -1 -2 -2 -3 -5 -6 -6 -2 -1 -2 -3 -4 -5 -5 -6 -7
-2 -1 -1 -0 -0 -0 0 0 0 0 1 2 2 1 1 1 0 0 0 -0 -0 -1 -1 -2 -2 -2 -2 -2 -2 -2 -3 -4 -5 -6 -6 -4 -3 -3 -4 -6 -4 -6 -7 -8
-2 -1 -1 -1 -1 -1 -1 -0 -1 -1 -0 1 0 0 0 0 -0 0 0 -1 -1 -1 -2 -2 -2 -2 -2 -2 -2 -2 -2 -3 -5 -6 -7 -6 -3 -4 -5 -6 -7 -7 -8 -8
-2 -1 -1 -1 -1 -1 -1 -1 -2 -1 -1 -0 -0 -0 -1 -0 0 -1 -1 -1 -2 -2 -2 -2 -2 -2 -2 -2 -3 -3 -3 -2 -3 -4 -3 -3 -4 -5 -6 -6 -7 -8 -9 -9
-3 -2 -1 -1 -1 -1 -1 -0 -1 -2 -2 -1 -1 -0 -0 -1 -1 -1 -2 -2 -2 -3 -3 -3 -3 -3 -2 -2 -3 -3 -3 -4 -4 -4 -4 -4 -5 -6 -7 -7 -8 -8 -9 -10
-4 -3 -2 -1 -2 -1 -1 -2 -1 -2 -2 -2 -1 -1 -1 -1 -1 -1 -2 -2 -2 -3 -3 -2 -2 -3 -3 -3 -3 -3 -4 -4 -4 -5 -5 -6 -6 -7 -7 -8 -9 -9 -9 -10
-5 -4 -3 -2 -2 -2 -1 -1 -1 -1 -1 -1 -2 -1 -1 -1 -1 -2 -1 -2 -2 -2 -2 -3 -3 -3 -3 -3 -4 -4 -3 -4 -5 -6 -6 -7 -7 -8 -8 -9 -9 -9 -10 -10
-5 -5 -4 -3 -2 -2 -2 -2 -2 -2 -2 -2 -2 -2 -2 -2 -2 -2 -2 -2 -3 -3 -3 -3 -3 -3 -4 -4 -4 -4 -4 -4 -5 -6 -7 -7 -8 -8 -8 -9 -9 -10 -10 -11
-6 -6 -5 -4 -3 -3 -3 -3 -2 -2 -2 -3 -3 -3 -2 -2 -2 -3 -3 -3 -3 -3 -3 -4 -5 -5 -5 -5 -5 -4 -5 -5 -6 -6 -7 -7 -8 -8 -9 -9 -10 -11 -11 -12
-7 -6 -6 -5 -5 -4 -3 -3 -3 -3 -3 -3 -3 -3 -3 -4 -3 -4 -4 -4 -4 -5 -5 -5 -5 -6 -6 -6 -4 -4 -5 -5 -6 -7 -7 -8 -8 -9 -9 -10 -11 -11 -12 -12
-8 -7 -6 -6 -6 -6 -5 -5 -4 -4 -3 -4 -4 -4 -3 -4 -5 -5 -5 -5 -6 -6 -6 -6 -6 -6 -7 -5 -5 -5 -6 -6 -7 -7 -8 -8 -9 -9 -10 -11 -11 -12 -12 -12
-8 -8 -7 -7 -6 -7 -6 -6 -6 -5 -6 -6 -5 -5 -5 -4 -5 -6 -6 -7 -7 -7 -6 -7 -7 -7 -6 -6 -6 -6 -6 -7 -7 -8 -8 -9 -9 -10 -11 -11 -12 -12 -13 -13
-9 -8 -8 -8 -8 -8 -7 -7 -7 -7 -7 -7 -6 -6 -6 -6 -6 -7 -7 -7 -8 -8 -8 -8 -8 -7 -5 -5 -6 -6 -7 -7 -8 -8 -9 -9 -10 -11 -11 -12 -12 -13 -13 -14
-9 -9 -9 -9 -9 -8 -8 -8 -8 -8 -8 -7 -7 -7 -7 -7 -7 -7 -8 -8 -8 -9 -9 -9 -8 -6 -6 -6 -6 -7 -8 -8 -9 -9 -9 -10 -11 -12 -12 -12 -13 -14 -14 -15
-9 -9 -9 -9 -9 -9 -9 -9 -9 -8 -8 -8 -8 -7 -8 -8 -8 -8 -8 -9 -9 -10 -9 -9 -7 -7 -7 -7 -7 -8 -8 -9 -9 -10 -10 -11 -12 -12 -13 -13 -14 -14 -15 -15
-10 -10 -10 -10 -10 -10 -9 -9 -9 -8 -9 -8 -9 -8 -8 -9 -9 -9 -9 -9 -9 -10 -9 -8 -7 -7 -8 -8 -9 -9 -9 -10 -10 -11 -12 -12 -13 -13 -13 -14 -15 -15 -16 -16
-10 -10 -10 -10 -9 -9 -9 -9 -10 -9 -10 -10 -10 -10 -9 -9 -9 -9 -10 -10 -10 -9 -8 -8 -8 -8 -8 -9 -9 -10 -10 -11 -12 -12 -13 -13 -13 -14 -14 -15 -15 -16 -16 -16
-10 -10 -10 -10 -10 -10 -9 -9 -10 -10 -10 -10 -10 -10 -10 -10 -10 -10 -10 -10 -9 -9 -8 -9 -9 -9 -10 -10 -11 -11 -12 -12 -13 -13 -13 -13 -14 -14 -15 -16 -16 -16 -17 -17
-10 -10 -10 -10 -10 -10 -10 -10 -10 -10 -10 -10 -10 -10 -10 -11 -11 -11 -10 -10 -10 -10 -10 -11 -11 -11 -11 -11 -12 -12 -13 -13 -14 -14 -14 -14 -15 -15 -16 -16 -17 -17 -17 -17
Height
3129 3132 3134 3136 3138 3139 3140 3140 3141 3142 3142 3144 3143 3141 3142 3142 3141 3142 3143 3143 3142 3143 3144 3143 3143 3143 3143 3143 3142 3141 3141 3139 3137 3137 3132 3130 3130 3129 3130 3131 3128 3126 3123 3102
3121 3124 3127 3129 3132 3134 3135 3134 3135 3136 3137 3138 3137 3137 3138 3138 3138 3139 3139 3139 3140 3141 3142 3142 3140 3140 3141 3140 3140 3139 3138 3138 3136 3133 3132 3129 3128 3127 3127 3126 3124 3118 3120 3100
3112 3116 3118 3121 3124 3126 3129 3130 3130 3130 3131 3132 3132 3132 3133 3134 3135 3135 3136 3136 3137 3139 3139 3139 3138 3137 3137 3137 3137 3136 3135 3135 3136 3134 3130 3129 3125 3123 3121 3119 3115 3110 3102 3094
3105 3107 3110 3113 3116 3119 3123 3123 3123 3124 3124 3125 3126 3128 3129 3129 3131 3132 3132 3132 3134 3136 3136 3136 3135 3134 3134 3133 3133 3132 3131 3127 3127 3125 3122 3120 3115 3111 3111 3109 3103 3102 3088 3092
3096 3099 3102 3104 3109 3112 3114 3116 3117 3118 3120 3120 3122 3122 3124 3125 3127 3128 3128 3128 3129 3132 3132 3133 3132 3131 3130 3129 3128 3127 3125 3120 3118 3114 3114 3111 3104 3098 3099 3097 3094 3091 3086 3081
3087 3091 3094 3097 3100 3103 3105 3108 3110 3112 3112 3115 3117 3118 3118 3120 3122 3123 3123 3124 3125 3127 3129 3127 3127 3126 3125 3124 3123 3121 3119 3117 3114 3108 3107 3104 3095 3087 3088 3089 3087 3087 3083 3080
3078 3081 3085 3088 3091 3095 3098 3102 3104 3105 3106 3108 3111 3112 3113 3115 3116 3118 3119 3120 3120 3122 3123 3123 3122 3120 3119 3118 3116 3115 3113 3112 3112 3105 3104 3098 3085 3084 3082 3081 3080 3078 3076 3075
3067 3072 3076 3080 3083 3086 3089 3093 3096 3098 3099 3102 3103 3106 3108 3110 3111 3112 3114 3114 3116 3117 3118 3117 3116 3114 3113 3110 3109 3109 3108 3108 3108 3105 3097 3085 3078 3076 3076 3074 3072 3072 3068 3067
3056 3062 3066 3070 3075 3078 3081 3085 3088 3091 3092 3094 3097 3098 3101 3104 3106 3107 3108 3109 3109 3111 3112 3112 3109 3107 3106 3105 3103 3102 3102 3102 3103 3098 3095 3083 3073 3072 3071 3068 3064 3063 3063 3060
3044 3051 3057 3061 3066 3069 3072 3077 3081 3083 3084 3087 3089 3090 3093 3097 3099 3101 3102 3103 3103 3104 3103 3104 3103 3100 3100 3097 3096 3095 3095 3093 3092 3091 3088 3076 3068 3067 3067 3069 3066 3058 3056 3053
3030 3038 3045 3051 3056 3060 3062 3069 3071 3075 3077 3080 3082 3084 3086 3088 3091 3093 3094 3097 3095 3096 3096 3096 3095 3091 3089 3087 3086 3087 3088 3087 3083 3083 3082 3073 3065 3065 3066 3062 3055 3051 3048 3044
3016 3024 3033 3040 3046 3051 3055 3058 3064 3066 3068 3071 3074 3075 3077 3081 3083 3084 3083 3087 3088 3088 3088 3087 3085 3084 3079 3079 3076 3077 3078 3076 3074 3074 3067 3064 3060 3057 3056 3053 3048 3045 3041 3037
3003 3012 3019 3026 3033 3039 3043 3049 3055 3055 3059 3063 3062 3064 3068 3070 3074 3075 3075 3076 3080 3078 3080 3079 3077 3075 3071 3070 3065 3065 3065 3067 3063 3061 3059 3058 3055 3051 3048 3045 3041 3037 3034 3030
2994 2998 3005 3012 3018 3027 3031 3034 3044 3048 3049 3050 3046 3051 3055 3059 3062 3065 3065 3067 3068 3069 3069 3067 3065 3064 3062 3059 3060 3057 3057 3056 3055 3050 3049 3048 3046 3042 3040 3037 3033 3029 3027 3023
2986 2988 2992 3000 3006 3014 3021 3023 3027 3033 3037 3033 3032 3040 3043 3047 3051 3053 3055 3055 3057 3057 3056 3055 3054 3053 3055 3051 3048 3043 3048 3048 3046 3044 3042 3040 3037 3034 3032 3030 3027 3023 3020 3017
2979 2982 2985 2988 2994 3000 3006 3009 3015 3019 3023 3024 3023 3026 3028 3034 3038 3041 3043 3044 3045 3046 3045 3045 3044 3043 3046 3042 3037 3037 3040 3040 3038 3036 3034 3033 3030 3028 3025 3023 3021 3017 3014 3011
2973 2975 2977 2980 2985 2989 2993 2995 3002 3010 3014 3014 3013 3013 3015 3019 3025 3029 3031 3034 3033 3035 3036 3034 3035 3036 3037 3031 3029 3032 3032 3032 3030 3028 3026 3025 3023 3021 3019 3017 3015 3011 3008 3005
2968 2970 2972 2974 2978 2981 2985 2989 2995 2998 3002 3002 3001 3000 3008 3008 3011 3018 3021 3023 3024 3024 3025 3025 3027 3029 3027 3024 3024 3026 3024 3023 3022 3021 3019 3018 3016 3015 3013 3011 3009 3006 3003 3000
2963 2964 2968 2969 2972 2976 2980 2983 2985 2988 2994 2991 2988 2993 2998 3002 3005 3009 3011 3013 3015 3018 3017 3020 3023 3018 3017 3018 3020 3019 3018 3017 3015 3014 3013 3012 3011 3009 3007 3005 3004 3001 2998 2994
2959 2962 2964 2966 2969 2974 2977 2978 2981 2983 2983 2983 2984 2987 2991 2997 2999 3001 3007 3007 3010 3010 3011 3012 3012 3007 3012 3012 3012 3012 3012 3011 3010 3008 3007 3006 3004 3003 3002 3000 2998 2995 2992 2989
2956 2959 2962 2965 2967 2970 2973 2973 2976 2977 2978 2979 2982 2985 2987 2992 2996 2999 3003 3002 3005 3007 3006 3007 3003 3002 3005 3005 3006 3005 3005 3005 3004 3003 3003 3001 3000 2999 2997 2995 2993 2990 2987 2984
2957 2960 2959 2962 2964 2966 2970 2970 2972 2973 2976 2976 2978 2981 2986 2990 2994 2997 3000 3002 3004 3003 3003 3003 2998 2999 2999 2999 2999 3000 3000 3000 2999 2999 2999 2997 2995 2993 2992 2990 2988 2984 2981 2979
2955 2958 2960 2961 2962 2963 2965 2965 2968 2972 2973 2976 2977 2978 2982 2986 2992 2995 2998 2999 3000 3000 2998 2996 2995 2995 2995 2994 2995 2996 2996 2995 2994 2995 2995 2993 2991 2989 2987 2985 2983 2979 2976 2974
2954 2955 2958 2960 2959 2961 2964 2966 2968 2972 2975 2975 2975 2978 2981 2984 2989 2991 2993 2995 2996 2994 2991 2991 2991 2991 2992 2992 2991 2993 2992 2992 2991 2991 2991 2989 2987 2984 2982 2980 2977 2974 2973 2971
2952 2955 2956 2955 2958 2963 2966 2968 2971 2972 2973 2976 2978 2980 2982 2983 2986 2989 2991 2989 2988 2987 2987 2987 2988 2988 2988 2989 2989 2989 2988 2988 2987 2986 2986 2984 2980 2979 2978 2974 2972 2970 2970 2967
2951 2953 2955 2957 2962 2966 2968 2970 2972 2975 2976 2977 2979 2981 2981 2982 2984 2985 2985 2985 2983 2984 2985 2985 2985 2986 2985 2985 2986 2985 2983 2983 2982 2981 2980 2978 2975 2973 2972 2970 2968 2968 2965 2963
2951 2953 2956 2958 2962 2965 2966 2969 2973 2976 2977 2978 2978 2978 2978 2979 2981 2981 2981 2982 2982 2982 2982 2981 2981 2982 2980 2980 2980 2979 2979 2976 2975 2976 2975 2973 2971 2969 2967 2965 2965 2964 2962 2959
Wind_Speed
31 30 30 27 27 25 24 23 20 19 17 14 14 15 13 12 9 10 10 9 9 9 7 6 4 5 4 7 11 11 5 9 8 9 20 18 15 10 8 5 3 9 10 19
32 31 29 27 25 24 24 23 22 21 19 17 18 17 15 13 11 11 9 8 7 8 7 4 4 5 5 11 12 11 12 5 9 5 7 6 9 11 12 14 14 18 12 12
34 32 29 27 25 24 23 24 19 23 23 22 19 17 17 16 13 12 11 9 9 9 9 8 5 8 6 13 16 14 16 11 12 15 20 21 22 24 22 20 16 21 34 38
35 33 31 28 25 25 24 24 25 24 13 21 22 21 18 17 15 12 11 10 11 10 7 8 11 7 13 16 16 14 15 19 24 25 26 26 30 36 32 29 37 29 44 31
37 36 35 30 27 26 26 25 25 25 23 22 19 20 22 18 16 14 13 12 11 11 11 10 10 13 15 16 17 19 23 21 29 31 28 24 30 38 37 34 32 35 38 39
38 36 35 33 30 29 28 27 27 26 25 25 23 25 23 19 17 15 14 12 11 9 9 14 14 16 19 20 22 24 27 25 24 19 21 22 26 5 10 17 17 23 25 22
38 37 36 35 33 31 30 28 27 27 29 27 26 25 23 22 19 18 14 13 13 12 13 16 17 21 23 24 25 22 26 27 22 18 25 5 8 17 20 19 23 23 21 27
42 38 37 36 35 33 31 29 30 30 31 29 28 26 23 22 21 18 16 16 15 16 16 19 18 19 20 16 17 17 20 24 14 7 11 25 18 13 12 17 23 25 29 21
44 39 37 37 37 35 33 31 31 32 31 31 27 26 25 24 21 20 20 18 18 19 21 19 15 9 17 8 10 11 15 20 23 14 7 7 21 24 22 23 23 10 16 26
49 43 41 38 38 37 35 32 31 31 31 29 26 29 26 23 22 21 20 20 19 19 24 23 27 22 26 15 19 17 16 19 27 26 13 17 27 21 18 6 19 25 34 40
51 49 45 40 39 38 37 33 32 31 32 30 29 28 28 26 24 24 24 23 25 25 24 25 22 20 20 22 25 22 22 15 14 13 11 14 15 14 18 28 34 37 38 37
55 52 47 47 41 39 38 39 35 35 37 31 33 35 32 30 29 27 30 31 25 19 18 18 17 21 25 24 23 25 25 29 23 19 18 27 30 35 36 36 37 38 37 37
43 61 52 53 49 42 45 41 39 41 40 38 41 39 35 32 31 33 33 32 32 31 29 36 35 40 33 34 29 29 29 26 30 32 33 32 31 36 35 34 34 34 35 37
38 47 60 53 53 51 48 48 45 43 45 45 48 37 37 39 34 35 30 36 32 29 30 36 36 39 36 35 35 33 31 31 31 35 34 34 32 30 29 33 33 32 33 32
37 37 45 62 59 56 53 55 55 54 52 31 41 47 47 44 37 36 34 31 32 30 37 36 37 41 39 41 41 44 38 34 31 30 28 31 31 32 32 32 30 29 29 31
29 30 36 41 48 54 49 52 50 46 47 48 48 39 37 39 41 37 34 35 32 32 36 37 37 41 37 23 35 38 30 24 27 29 28 29 30 30 29 28 27 27 27 26
22 22 27 33 37 42 48 46 53 51 46 48 45 41 47 44 39 36 33 33 36 38 37 39 37 34 30 33 37 33 32 30 29 26 25 26 26 26 25 24 25 24 23 25
17 21 25 28 31 33 38 42 43 43 46 54 34 25 35 34 33 32 32 33 34 31 30 31 29 28 29 30 36 32 29 24 21 22 23 23 22 21 20 21 21 21 24 26
17 18 20 23 28 26 30 34 40 42 37 26 16 25 30 34 31 27 26 29 25 22 26 28 23 28 23 27 28 23 20 21 22 22 21 19 17 17 18 18 20 23 26 28
17 14 13 17 23 30 25 28 26 23 29 17 15 20 23 25 28 28 23 18 16 10 19 20 28 37 31 27 25 25 24 23 22 20 17 14 15 17 18 20 22 24 26 27
18 16 14 13 16 19 20 11 16 14 10 15 17 14 15 18 21 23 17 8 8 7 12 13 8 15 15 16 18 19 19 19 18 15 13 15 16 17 19 21 24 25 25 24
18 15 12 14 16 9 9 9 7 7 8 8 15 18 17 15 16 17 13 8 6 6 6 7 6 14 14 14 15 16 17 16 13 12 15 16 16 18 20 23 24 23 22 22
16 17 18 8 6 6 8 9 7 7 8 10 11 13 14 12 13 9 7 7 7 5 6 6 10 13 11 11 13 13 13 12 12 14 16 17 18 19 21 23 22 21 21 21
23 11 11 6 5 6 5 8 10 12 13 13 10 11 9 10 9 6 4 7 6 6 7 10 11 9 12 12 12 11 11 12 14 15 16 17 19 20 21 20 20 19 20 20
11 7 6 7 6 11 9 9 7 9 5 4 4 7 7 5 4 4 7 5 6 7 7 9 9 9 9 9 10 12 12 14 15 16 17 19 20 20 19 18 17 17 18 19
7 7 8 12 11 10 9 10 8 6 6 5 3 5 5 7 6 7 8 4 6 9 11 10 10 12 11 13 14 14 16 16 16 16 18 20 20 19 17 16 16 16 16 18
8 10 11 13 12 10 8 7 6 4 4 3 2 2 5 3 5 6 8 13 16 15 15 16 16 18 20 17 16 16 16 15 15 17 18 19 19 18 16 15 15 15 15 16
Wind_Direction
247 250 253 252 255 253 252 252 253 253 253 251 250 251 251 247 242 240 248 252 245 244 254 272 260 241 256 298 316 332 324 304 287 284 292 289 284 260 227 259 256 244 272 281
243 243 245 246 249 251 249 248 250 248 246 245 248 251 246 239 243 242 246 236 236 242 252 268 243 259 277 304 324 328 328 315 317 279 299 318 291 284 258 273 279 262 253 267
239 239 241 242 244 249 250 247 244 246 242 244 247 246 239 238 240 235 240 245 248 250 258 254 261 283 295 317 330 325 319 301 286 262 285 290 279 278 277 266 253 265 252 273
242 242 238 239 240 242 244 244 244 243 240 236 238 237 236 234 232 231 233 243 245 248 255 265 279 272 307 311 311 307 297 288 301 300 299 293 282 283 281 256 262 255 279 275
237 237 239 240 239 240 241 239 239 240 242 240 235 230 230 233 237 237 237 243 250 252 254 262 275 291 299 296 301 299 295 286 303 293 304 295 284 296 289 276 274 266 280 279
236 238 238 236 234 236 239 240 241 240 242 239 236 234 233 236 235 239 238 244 242 251 254 265 274 277 286 284 290 290 283 280 296 291 300 297 293 296 279 279 283 286 274 284
235 236 238 236 234 235 239 239 241 240 242 239 237 238 234 232 231 234 237 241 251 266 270 269 275 279 277 288 287 277 277 279 279 279 295 252 273 287 288 277 288 286 277 285
231 234 235 237 235 233 234 235 238 239 242 241 239 236 232 229 230 233 238 246 256 265 266 272 286 283 288 286 266 272 268 266 264 255 251 286 306 288 295 290 287 288 288 285
227 230 234 235 235 233 232 233 235 238 240 241 239 233 232 230 235 239 243 252 258 260 260 264 257 253 271 267 272 249 261 252 241 246 249 274 297 293 299 294 297 293 290 302
223 226 233 233 231 232 230 229 231 233 236 239 237 232 232 234 235 243 254 257 259 258 256 259 266 258 264 250 262 262 262 255 241 246 254 275 278 288 285 273 301 301 304 305
220 220 227 229 227 227 228 226 225 230 234 235 233 236 237 237 241 251 258 260 254 258 257 258 260 260 254 265 257 259 269 257 238 223 230 268 283 273 282 296 296 300 302 302
219 219 217 226 224 224 227 226 224 230 233 234 236 239 240 244 247 249 252 258 257 263 258 242 254 261 263 263 252 272 259 265 255 246 268 278 290 289 293 297 297 299 300 304
226 220 218 224 222 224 232 232 225 230 237 245 244 241 239 243 245 254 260 262 267 272 279 260 272 262 268 268 268 279 266 264 259 270 278 274 285 293 293 291 293 298 301 305
230 227 218 222 217 221 229 232 230 231 238 243 248 247 246 247 252 258 259 270 265 273 263 267 263 265 270 269 275 272 273 278 278 277 279 286 286 289 290 295 299 301 302 303
244 232 223 221 225 220 225 237 242 234 234 236 247 251 251 251 259 260 260 255 262 260 253 251 260 264 264 270 271 269 274 280 276 278 281 286 289 291 295 299 299 301 302 305
241 238 231 223 214 218 223 225 232 232 235 238 248 248 253 257 265 256 246 250 250 259 253 255 259 260 262 262 265 275 279 279 282 283 283 282 284 290 295 296 299 301 304 306
241 239 238 234 226 219 216 221 226 226 231 235 238 248 250 254 252 245 241 249 257 252 248 247 250 257 258 255 260 276 283 285 284 282 280 282 287 289 293 296 299 303 307 311
227 237 236 236 236 235 236 236 238 238 232 229 229 231 241 244 238 232 239 239 239 240 240 245 248 253 252 259 273 280 281 279 279 281 282 285 288 291 295 299 304 309 312 315
219 227 232 228 227 230 233 232 231 232 225 221 226 222 232 237 233 226 224 224 225 230 234 240 248 252 248 264 276 274 272 279 283 284 285 286 288 294 302 305 309 312 315 317
216 218 225 230 226 223 228 229 227 224 215 222 224 216 217 229 218 212 210 206 208 229 243 253 251 255 266 265 265 270 276 278 279 282 283 283 293 302 304 307 310 313 314 315
214 213 215 213 211 207 200 196 195 200 205 218 219 210 217 208 204 203 198 210 215 232 241 224 242 253 254 258 264 262 265 272 276 276 277 291 298 301 305 307 309 310 313 315
218 217 196 173 175 179 194 190 195 191 200 188 200 206 210 215 214 210 213 221 216 240 222 219 241 251 255 264 261 263 268 269 267 273 287 293 296 301 304 306 307 310 316 319
216 189 170 170 180 176 174 173 169 179 165 174 181 187 195 200 209 211 205 214 223 216 224 231 247 270 266 269 271 262 257 250 261 276 285 291 296 300 302 305 308 313 317 319
197 176 180 179 172 175 166 173 171 168 159 153 150 154 170 193 187 190 206 219 212 227 233 253 268 270 283 278 265 249 244 261 276 284 291 294 297 302 304 306 310 314 316 317
187 173 171 165 147 134 144 153 146 159 131 140 176 198 207 200 228 211 219 207 219 227 233 251 258 266 269 258 250 250 264 274 279 286 291 296 303 305 303 306 309 312 312 316
166 164 161 166 162 169 178 183 182 194 219 236 207 226 213 214 219 212 211 221 226 242 250 253 265 262 257 259 252 264 274 276 283 290 296 300 301 301 305 305 308 309 314 317
202 180 174 162 166 176 175 173 187 217 196 152 183 203 202 216 229 231 245 256 268 271 273 273 271 273 285 272 270 272 274 278 286 291 296 298 301 301 301 304 305 308 312 317